Tracking 17857 objects as of 1-October-2016
HD Live streaming from Space Station
objects crossing your sky now

TITAN 3 R/B(2)

Track TITAN 3 R/B(2) now!


NORAD ID: 20669
Int'l Code: 1990-056C
Perigee: 320.0 km
Apogee: 33,107.3 km
Inclination: 24.1 °
Period: 581.8 minutes
Semi major axis: 23084 km
RCS: 6.947 m2 (large)
Launch date: June 23, 1990
Source: United States (US)
Launch site: AIR FORCE EASTERN TEST RANGE (AFETR)

Note: This is a ROCKET BODY
Your satellite tracking list
Your tracking list is empty





NASA's NSSDC Master Catalog

Two Line Element Set (TLE):
1 20669U 90056C   16272.33177072  .00000178  00000-0  64224-3 0  9998
2 20669  24.1107 197.5990 7101518 193.3734 126.9638  2.47524384220911
Source of the keplerian elements: AFSPC

N2YO: 738